Hourly Data Report for October 20, 2015

All times are specified in Local Standard Time (LST). Add 1 hour to adjust for Daylight Saving Time where and when it is observed.

CLYDE RIVER A
NUNAVUT

70°29'09.000" N
68°31'01.000" W
26.50 m
2400804
71090
YCY

Download Data

Hourly Data (October 2015)
Hourly Data Report for October 20, 2015
Temp Definition
°C
Dew Point Temp Definition
°C
Rel Hum Definition
%
Wind Dir Definition
10's deg

Wind Spd Definition
km/h
Visibility Definition
km
Stn Press Definition
kPa
Hmdx Definition


Wind Chill Definition


Weather Definition


TIME
00:00 Legend Double Dagger -8.7 -10.5 87 32 26 16.1 100.78   -17 LegendNANA
01:00 Legend Double Dagger -7.5 -8.8 90 30 18 16.1 100.80   -14 Snow
02:00 Legend Double Dagger -7.3 -8.2 93 31 22 16.1 100.81   -15 Snow
03:00 Legend Double Dagger -7.9 -9.1 91 30 26 16.1 100.84   -16 LegendNANA
04:00 Legend Double Dagger -7.6 -8.6 93 30 26 16.1 100.87   -16 Snow
05:00 Legend Double Dagger -7.5 -8.7 91 30 22 6.4 100.89   -15 Snow
06:00 Legend Double Dagger -7.2 -8.1 93 34 15 16.1 100.91   -13 LegendNANA
07:00 Legend Double Dagger -4.8 -5.9 92 2 15 16.1 100.93   -10 Snow
08:00 Legend Double Dagger -5.3 -7.9 82 1 21 16.1 100.96   -12 Snow
09:00 Legend Double Dagger -6.1 -8.2 86 35 13 16.1 100.99   -11 LegendNANA
10:00 Legend Double Dagger -4.9 -7.8 80 32 17 16.1 101.00   -11 LegendNANA
11:00 Legend Double Dagger -5.3 -7.8 83 30 13 16.1 101.03   -10 LegendNANA
12:00 Legend Double Dagger -4.9 -8.4 77 28 15 16.1 101.03   -10 LegendNANA
13:00 Legend Double Dagger -7.9 -10.9 80 26 9 16.1 101.04   -12 LegendNANA
14:00 Legend Double Dagger -11.5 -13.7 84 28 5 16.1 101.07   -15 LegendNANA
15:00 Legend Double Dagger -11.5 -13.2 87 27 9 16.1 101.07   -17 LegendNANA
16:00 Legend Double Dagger -11.0 -12.3 90 25 5 16.1 101.07   -14 LegendNANA
17:00 Legend Double Dagger -8.6 -10.3 88 19 8 16.1 101.06   -13 LegendNANA
18:00 Legend Double Dagger -8.8 -11.5 81 LegendMM 4 16.1 101.03   -11 LegendNANA
19:00 Legend Double Dagger -10.2 -13.1 80 24 8 16.1 101.00   -15 LegendNANA
20:00 Legend Double Dagger -12.5 -16.1 75 29 11 16.1 100.98   -19 LegendNANA
21:00 Legend Double Dagger -10.8 -15.8 67 26 9 16.1 100.93   -16 LegendNANA
22:00 Legend Double Dagger -11.6 -16.2 69 26 8 16.1 100.89   -16 LegendNANA
23:00 Legend Double Dagger -12.6 -17.0 70 26 4 16.1 100.83   -15 LegendNANA

Notes on Data Quality.

Legend

  • E = Estimated
  • M = Missing
  • NA = Not Available
  • ‡ = Partner data that is not subject to review by the National Climate Archives
Date modified: